When you browse on this site, cookies collect data to enhance your experience and personalize the content and advertising you see.
Visit our Privacy Policy to learn more. By continuing to use the site, you agree to this use of cookies and data.
  • In Hungary
  • List of Countries
  • For 7 days
  • Water Temperature
  • Satellite Maps
  • Weather Map
  • News
  • Weather Widgets
  • user-avatar
    Login

    Hourly Weather Tracy

    Today, 17 January, Thursday

    Time Temperature Precipitation Wind Pressure Humidity
    00:00 +15°C° 2 mm 5 mps 756 mmHg 85%
    01:00 +14°C° 2 mm 5 mps 756 mmHg 85%
    02:00 +14°C° 0 mm 5 mps 756 mmHg 84%
    03:00 +13°C° 0 mm 5 mps 757 mmHg 83%
    04:00 +13°C° 0 mm 3 mps 757 mmHg 85%
    05:00 +13°C° 0 mm 3 mps 757 mmHg 85%
    06:00 +12°C° 0 mm 3 mps 758 mmHg 84%
    07:00 +12°C° 0 mm 3 mps 758 mmHg 84%
    08:00 +13°C° 0.1 mm 4 mps 759 mmHg 77%
    09:00 +14°C° 0.1 mm 5 mps 760 mmHg 71%
    10:00 +15°C° 0.1 mm 7 mps 760 mmHg 64%
    11:00 +15°C° 0.1 mm 7 mps 761 mmHg 64%
    12:00 +15°C° 0.1 mm 7 mps 761 mmHg 63%
    13:00 +15°C° 0.1 mm 7 mps 761 mmHg 63%
    14:00 +15°C° 0 mm 6 mps 762 mmHg 64%
    15:00 +15°C° 0 mm 5 mps 762 mmHg 64%
    16:00 +14°C° 0 mm 4 mps 762 mmHg 64%
    17:00 +13°C° 0 mm 3 mps 763 mmHg 69%
    18:00 +14°C° 0 mm 2 mps 764 mmHg 73%
    19:00 +13°C° 0 mm 1 mps 764 mmHg 77%
    20:00 +12°C° 0 mm 1 mps 765 mmHg 78%
    21:00 +12°C° 0 mm 1 mps 766 mmHg 79%
    22:00 +12°C° 0 mm 1 mps 767 mmHg 80%
    23:00 +12°C° 0 mm 1 mps 767 mmHg 81%

    Tomorrow, 18 January, Friday

    Time Temperature Precipitation Wind Pressure Humidity
    00:00 +12°C° 0 mm 1 mps 767 mmHg 82%
    01:00 +12°C° 0 mm 1 mps 768 mmHg 82%
    02:00 +11°C° 0 mm 1 mps 768 mmHg 82%
    03:00 +10°C° 0 mm 0 mps 768 mmHg 82%
    04:00 +10°C° 0 mm 0 mps 768 mmHg 82%
    05:00 +10°C° 0 mm 0 mps 768 mmHg 82%
    06:00 +10°C° 0 mm 0 mps 769 mmHg 81%
    07:00 +11°C° 0 mm 0 mps 769 mmHg 81%
    08:00 +11°C° 0 mm 0 mps 769 mmHg 78%
    09:00 +12°C° 0 mm 0 mps 769 mmHg 74%
    10:00 +13°C° 0 mm 0 mps 769 mmHg 71%
    11:00 +14°C° 0 mm 1 mps 769 mmHg 70%
    12:00 +15°C° 0 mm 1 mps 769 mmHg 68%
    13:00 +15°C° 0 mm 1 mps 768 mmHg 66%
    14:00 +15°C° 0 mm 1 mps 768 mmHg 66%
    15:00 +15°C° 0 mm 1 mps 768 mmHg 66%
    16:00 +15°C° 0 mm 2 mps 768 mmHg 66%
    17:00 +15°C° 0 mm 1 mps 768 mmHg 68%
    18:00 +14°C° 0 mm 1 mps 768 mmHg 70%
    19:00 +13°C° 0 mm 1 mps 769 mmHg 73%
    20:00 +13°C° 0 mm 1 mps 769 mmHg 73%
    21:00 +13°C° 0 mm 1 mps 769 mmHg 73%
    22:00 +13°C° 0 mm 1 mps 770 mmHg 73%
    23:00 +13°C° 0 mm 1 mps 770 mmHg 73%

    Day after tomorrow, 19 January, Saturday

    Time Temperature Precipitation Wind Pressure Humidity
    00:00 +13°C° 0 mm 1 mps 770 mmHg 73%
    01:00 +13°C° 0 mm 1 mps 770 mmHg 73%
    02:00 +13°C° 0 mm 1 mps 769 mmHg 73%
    03:00 +13°C° 0 mm 1 mps 769 mmHg 74%
    04:00 +13°C° 0 mm 1 mps 769 mmHg 75%
    05:00 +13°C° 0 mm 1 mps 769 mmHg 76%
    06:00 +13°C° 0 mm 1 mps 769 mmHg 78%
    07:00 +12°C° 0 mm 1 mps 769 mmHg 79%
    08:00 +14°C° 0 mm 1 mps 769 mmHg 75%
    09:00 +16°C° 0 mm 1 mps 769 mmHg 71%
    10:00 +16°C° 0 mm 0 mps 770 mmHg 67%
    11:00 +19°C° 0 mm 1 mps 769 mmHg 65%
    12:00 +20°C° 0 mm 1 mps 768 mmHg 62%
    13:00 +21°C° 0 mm 1 mps 768 mmHg 60%
    14:00 +21°C° 0 mm 1 mps 768 mmHg 62%
    15:00 +21°C° 0 mm 1 mps 767 mmHg 65%
    16:00 +21°C° 0 mm 1 mps 767 mmHg 67%
    17:00 +19°C° 0 mm 1 mps 767 mmHg 71%
    18:00 +18°C° 0 mm 1 mps 767 mmHg 76%
    19:00 +16°C° 0 mm 1 mps 767 mmHg 81%
    20:00 +15°C° 0 mm 1 mps 767 mmHg 82%
    21:00 +15°C° 0 mm 1 mps 767 mmHg 83%
    22:00 +15°C° 0 mm 1 mps 766 mmHg 85%
    23:00 +15°C° 0 mm 1 mps 766 mmHg 85%

    20 January, Sunday

    Time Temperature Precipitation Wind Pressure Humidity
    00:00 +14°C° 0 mm 1 mps 766 mmHg 86%
    01:00 +14°C° 0 mm 1 mps 765 mmHg 87%
    02:00 +14°C° 0 mm 1 mps 765 mmHg 88%
    03:00 +14°C° 0 mm 1 mps 765 mmHg 88%
    04:00 +14°C° 0 mm 1 mps 765 mmHg 88%
    05:00 +14°C° 0 mm 1 mps 764 mmHg 88%
    06:00 +14°C° 0 mm 1 mps 764 mmHg 87%
    07:00 +14°C° 0 mm 2 mps 764 mmHg 87%
    08:00 +15°C° 0.1 mm 2 mps 764 mmHg 83%
    09:00 +16°C° 0.1 mm 2 mps 763 mmHg 79%
    10:00 +17°C° 0.1 mm 2 mps 763 mmHg 76%
    11:00 +17°C° 0.5 mm 3 mps 762 mmHg 74%
    12:00 +18°C° 0.5 mm 4 mps 762 mmHg 72%
    13:00 +17°C° 0.5 mm 5 mps 761 mmHg 70%
    14:00 +16°C° 0.3 mm 5 mps 761 mmHg 69%
    15:00 +16°C° 0.3 mm 6 mps 761 mmHg 69%
    16:00 +15°C° 0.3 mm 7 mps 760 mmHg 68%
    17:00 +14°C° 0.1 mm 6 mps 761 mmHg 71%
    18:00 +11°C° 0.1 mm 6 mps 761 mmHg 74%
    19:00 +10°C° 0.1 mm 6 mps 762 mmHg 77%
    20:00 +9°C° 0 mm 6 mps 762 mmHg 76%
    21:00 +9°C° 0 mm 5 mps 763 mmHg 75%
    22:00 +8°C° 0 mm 5 mps 763 mmHg 73%
    23:00 +8°C° 0 mm 5 mps 763 mmHg 74%

    21 January, Monday

    Time Temperature Precipitation Wind Pressure Humidity
    00:00 +8°C° 0 mm 5 mps 764 mmHg 74%
    01:00 +8°C° 0 mm 5 mps 764 mmHg 74%
    02:00 +8°C° 0 mm 4 mps 765 mmHg 74%
    03:00 +7°C° 0 mm 4 mps 765 mmHg 74%
    04:00 +7°C° 0 mm 4 mps 765 mmHg 74%
    05:00 +7°C° 0 mm 4 mps 766 mmHg 76%
    06:00 +7°C° 0 mm 3 mps 766 mmHg 77%
    07:00 +7°C° 0 mm 2 mps 767 mmHg 78%
    08:00 +8°C° 0 mm 3 mps 767 mmHg 73%
    09:00 +9°C° 0 mm 3 mps 767 mmHg 67%
    10:00 +10°C° 0 mm 3 mps 768 mmHg 62%
    11:00 +11°C° 0 mm 3 mps 767 mmHg 59%
    12:00 +12°C° 0 mm 3 mps 767 mmHg 55%
    13:00 +13°C° 0 mm 4 mps 767 mmHg 52%
    14:00 +13°C° 0 mm 4 mps 767 mmHg 53%
    15:00 +12°C° 0 mm 4 mps 767 mmHg 53%
    16:00 +12°C° 0 mm 4 mps 767 mmHg 54%
    17:00 +11°C° 0 mm 4 mps 767 mmHg 59%
    18:00 +10°C° 0 mm 3 mps 767 mmHg 64%
    19:00 +9°C° 0 mm 3 mps 768 mmHg 69%
    20:00 +8°C° 0 mm 3 mps 768 mmHg 69%
    21:00 +8°C° 0 mm 3 mps 768 mmHg 70%
    22:00 +8°C° 0 mm 3 mps 768 mmHg 70%
    23:00 +7°C° 0 mm 4 mps 768 mmHg 71%

    22 January, Tuesday

    Time Temperature Precipitation Wind Pressure Humidity
    00:00 +6°C° 0 mm 4 mps 769 mmHg 72%
    01:00 +6°C° 0 mm 4 mps 769 mmHg 72%
    02:00 +7°C° 0 mm 3 mps 769 mmHg 73%
    03:00 +5°C° 0 mm 3 mps 769 mmHg 73%
    04:00 +5°C° 0 mm 3 mps 769 mmHg 74%
    05:00 +5°C° 0 mm 2 mps 770 mmHg 73%
    06:00 +5°C° 0 mm 2 mps 770 mmHg 73%
    07:00 +5°C° 0 mm 1 mps 770 mmHg 73%
    08:00 +7°C° 0 mm 1 mps 770 mmHg 65%
    09:00 +8°C° 0 mm 1 mps 771 mmHg 58%
    10:00 +10°C° 0 mm 1 mps 771 mmHg 51%
    11:00 +11°C° 0 mm 1 mps 770 mmHg 47%
    12:00 +12°C° 0 mm 1 mps 770 mmHg 43%
    13:00 +13°C° 0 mm 0 mps 770 mmHg 39%
    14:00 +14°C° 0 mm 1 mps 770 mmHg 40%
    15:00 +14°C° 0 mm 1 mps 770 mmHg 41%
    16:00 +14°C° 0 mm 1 mps 770 mmHg 41%
    17:00 +12°C° 0 mm 1 mps 770 mmHg 45%
    18:00 +10°C° 0 mm 0 mps 770 mmHg 48%
    19:00 +8°C° 0 mm 0 mps 771 mmHg 52%
    20:00 +8°C° 0 mm 0 mps 771 mmHg 51%
    21:00 +8°C° 0 mm 0 mps 771 mmHg 51%
    22:00 +8°C° 0 mm 0 mps 771 mmHg 51%
    23:00 +7°C° 0 mm 0 mps 771 mmHg 51%
    Show more